Preview of NWS' New Version of Forecast
This preview is not operational and should not be used for support decisions.
Latest weather observations around

Demopolis Municipal Airport (KDYA)

Using International System of Units (Switch to English Units)
Date/ Time (CDT) Wind (kph) Vis. (km) Weather Sky Cond. Temp (°C) Rel. Humidity Wind Chill (°C) Heat Index (°C) Pressure Precip. (cm)
Air Dwpt 6 hour Altimeter (hPa) Sea level (hPa) 1 hr 3 hr 6 hr
Max Min
May 27 21:35 Calm 16.09 Partly Cloudy SCT050 24 22     87%   25 1010.5        
May 27 21:15 Calm 16.09 Clear CLR 24 22     87%   25 1010.2        
May 27 20:55 Calm 16.09 Clear CLR 25 22     85%   25 1010.2        
May 27 20:35 N 5 16.09 Partly Cloudy SCT050 25 22     84%   26 1009.8        
May 27 20:15 N 8 16.09 Mostly Cloudy SCT046 BKN050 25 22     81%   26 1009.8        
May 27 19:55 NNW 5 16.09 Partly Cloudy SCT042 26 21     78%   26 1009.8        
May 27 19:35 NNW 8 16.09 Partly Cloudy SCT042 26 22     77%   27 1009.8        
May 27 19:15 NNW 8 16.09 Partly Cloudy SCT042 26 22     75%   28 1009.5        
May 27 18:55 NW 5 16.09 Clear CLR 27 22     74%   29 1009.5        
May 27 18:35 Calm 16.09 Clear   27 22     70%   30 1009.5        
May 27 18:15 NNW 9 16.09 Clear   28 21     67%   30 1009.5        
May 27 17:55 NW 9 16.09 Clear   28 21     67%   30 1009.5        
May 27 17:35 NW 8 16.09 Partly Cloudy SCT045 SCT060 29 21     64%   31 1009.5        
May 27 17:15 NW 9 16.09 Clear CLR 29 21     61%   31 1009.5        
May 27 16:55 N 11 16.09 Clear CLR 30 19     52%   32 1009.5        
May 27 16:35 N 9 16.09 Partly Cloudy SCT044 SCT050 SCT070 30 20     55%   32 1009.5        
May 27 16:15 NE 8 16.09 Cloudy BKN044 OVC060 30 20     53%   32 1009.8        
May 27 15:55 NE 8 16.09 Partly Cloudy SCT044 SCT060 31 19     50%   32 1010.2        
May 27 15:35 NE 9 16.09 Clear CLR 31 19     47%   33 1010.5        
May 27 15:15 NE 5 16.09 Clear CLR 31 18     46%   32 1010.5        
May 27 14:55 E 5 16.09 Clear CLR 30 19     50%   32 1010.8        
May 27 14:35 NNE 8 16.09 Clear CLR 30 17     47%   31 1011.2        
May 27 14:15 NE 9 16.09 Clear CLR 30 18     49%   31 1011.2        
May 27 13:55 NNE 9 16.09 Clear CLR 30 18     48%   30 1011.2        
May 27 13:35 NE 8 16.09 Clear CLR 30 17     47%   30 1011.5        
May 27 13:15 N 8 16.09 Partly Cloudy SCT037 29 18     52%   30 1011.5        
May 27 12:55 Calm 16.09 Partly Cloudy SCT035 30 18     50%   30 1011.9        
May 27 12:35 ENE 8 16.09 Partly Cloudy SCT032 29 18     52%   31 1012.2        
May 27 12:15 NE 9 16.09 Partly Cloudy SCT032 29 20     58%   31 1012.2        
May 27 11:55 Calm 16.09 Partly Cloudy SCT028 29 20     59%   30 1012.5        
May 27 11:35 NNE 5 16.09 Partly Cloudy SCT028 28 20     63%   30 1012.9        
May 27 11:15 N 8 16.09 Mostly Cloudy BKN024 BKN029 28 20     64%   29 1013.2        
May 27 10:55 NE 5 16.09 Cloudy OVC020 27 21     67%   29 1013.2        
May 27 10:35 N 11 16.09 Cloudy BKN016 OVC022 26 21     73%   28 1012.9        
May 27 10:15 N 9 16.09 Cloudy OVC014 26 21     74%   27 1012.9        
May 27 09:55 NW 5 16.09 Cloudy OVC012 25 21     79%   26 1012.9        
May 27 09:35 N 5 16.09 Cloudy OVC008 24 21     84%   25 1013.2        
May 27 09:15 Calm 16.09 Cloudy OVC004 23 21     89%   24 1013.2        
May 27 08:55 N 5 16.09 Cloudy OVC004 22 22     98%   23 1013.6        
Notice The following observation data may not be complete
May 27 08:35 Calm 11.27 Cloudy OVC002          %     1013.2        
Notice The following observation data may not be complete
May 27 08:15 Calm 11.27 Cloudy OVC002          %     1012.9        
Notice The following observation data may not be complete
May 27 07:55 Calm 6.44 Haze OVC002          %     1012.9        
Notice The following observation data may not be complete
May 27 07:35 Calm 1.61 Fog/Mist OVC002          %     1012.9        
Notice The following observation data may not be complete
May 27 07:15 Calm 0.8 Fog OVC002          %     1012.9        
Notice The following observation data may not be complete
May 27 06:55 Calm 0.4 Fog OVC002          %     1012.5        
Notice The following observation data may not be complete
May 27 06:35 Calm 4.02 Fog/Mist BKN002          %     1012.5        
Notice The following observation data may not be complete
May 27 06:15 Calm 6.44 Haze BKN002          %     1012.5        
Notice The following observation data may not be complete
May 27 05:55 Calm 11.27 Partly Cloudy SCT002          %     1012.2        
Notice The following observation data may not be complete
May 27 05:35 Calm 11.27 Clear CLR          %     1012.2        
Notice The following observation data may not be complete
May 27 05:15 Calm 8.05 Haze SCT004          %     1011.9        
Notice The following observation data may not be complete
May 27 04:55 Calm 16.09 Partly Cloudy SCT004          %     1011.9        
Notice The following observation data may not be complete
May 27 04:35 Calm 16.09 Clear CLR          %     1011.9        
Notice The following observation data may not be complete
May 27 04:15 Calm 16.09 Clear CLR          %     1011.5        
Notice The following observation data may not be complete
May 27 03:55 Calm 11.27 Clear CLR          %     1011.5        
Notice The following observation data may not be complete
May 27 03:35 Calm 16.09 Clear CLR          %     1011.5        
May 27 03:15 Calm 8.05 Fog/Mist CLR 20 20     100%     1011.5        
May 27 02:55 Calm 8.05 Fog/Mist CLR 20 20     100%     1011.9        
May 27 02:35 Calm 11.27 Clear CLR 20 20     100%     1011.9        
May 27 02:15 Calm 16.09 Clear CLR 20 20     100%     1011.9        
May 27 01:55 Calm 8.05 Fog/Mist CLR 21 21     100%     1011.9        
May 27 01:35 Calm 11.27 Clear CLR 20 20     100%     1011.9        
May 27 01:15 Calm 11.27 Clear CLR 21 20     99%     1011.9        
May 27 00:55 Calm 11.27 Clear CLR 21 20     95%     1011.9        
May 27 00:35 Calm 11.27 Clear CLR 21 20     94%     1011.9        
May 27 00:15 Calm 16.09 Clear CLR 21 20     93%   22 1012.2        
May 26 23:55 Calm 16.09 Partly Cloudy SCT080 21 20     93%   22 1012.2        
May 26 23:35 Calm 16.09 Partly Cloudy SCT070 21 20     92%   22 1012.5        
May 26 23:15 Calm 16.09 Clear CLR 22 20     92%   22 1012.5        
May 26 22:55 Calm 16.09 Clear CLR 22 20     90%   23 1012.2        
May 26 22:35 Calm 16.09 Clear CLR 22 20     89%   23 1012.5        
May 26 22:15 ESE 5 16.09 Clear CLR 22 20     87%   23 1012.2        
May 26 21:55 SE 5 16.09 Partly Cloudy SCT043 SCT050 SCT060 23 20     87%   23 1012.2        
May 26 21:35 SE 8 16.09 Mostly Cloudy SCT050 BKN060 23 21     89%   23 1012.2        
May 26 21:15 SE 8 16.09 Partly Cloudy SCT048 23 21     90%   24 1011.9        
May 26 20:55 SSE 5 16.09 Clear CLR 23 21     90%   23 1011.5        
May 26 20:35 Calm 16.09 Clear CLR 23 21     88%   24 1011.5        
May 26 20:15 Calm 16.09 Clear CLR 24 21     83%   25 1011.2        
May 26 19:55 Calm 16.09 Clear CLR 24 21     84%   25 1011.2        
May 26 19:35 S 5 16.09 Clear CLR 25 21     81%   25 1011.2        
May 26 19:15 Calm 16.09 Clear CLR 25 21     80%   26 1011.2        
May 26 18:55 Calm 16.09 Clear CLR 25 21     77%   26 1010.8        
May 26 18:35 SSE 5 16.09 Clear CLR 26 21     74%   26 1010.5        
May 26 18:15 SE 8 16.09 Clear CLR 26 21     72%   28 1010.5        
May 26 17:55 Calm 16.09 Clear CLR 27 20     66%   29 1010.5        
May 26 17:35 S 5 16.09 Clear CLR 27 20     63%   29 1010.5        
May 26 17:15 Calm 16.09 Clear CLR 28 20     59%   30 1010.5        
May 26 16:55 S 9 16.09 Partly Cloudy SCT023 29 21     62%   31 1010.8        
May 26 16:35 SE 13 16.09 Partly Cloudy SCT023 29 21     63%   31 1010.8        
May 26 16:15 S 5 16.09 Clear CLR 28 21     67%   30 1010.8        
May 26 15:55 Calm 16.09 Clear CLR 27 21     70%   29 1011.2        
May 26 15:35 SE 9 16.09 Clear CLR 26 21     72%   28 1011.2        
May 26 15:15 SSE 5 16.09 Clear CLR 27 21     71%   28 1011.2        
May 26 14:55 ESE 5 16.09 Clear CLR 27 20     67%   28 1011.2        
May 26 14:35 ESE 9 16.09 Partly Cloudy SCT032 SCT041 SCT050 27 21     69%   29 1011.5        
May 26 14:15 E 8 16.09 Light Rain SCT033 SCT041 SCT050 27 21     71%   29 1011.9        
May 26 13:55 E 9 16.09 Partly Cloudy SCT028 26 21     72%   28 1012.2        
May 26 13:35 E 9 16.09 Partly Cloudy SCT026 28 22     67%   31 1012.2        
May 26 13:15 ESE 8 16.09 Partly Cloudy SCT027 29 21     62%   31 1012.5        
May 26 12:55 Calm 16.09 Clear CLR 28 21     65%   30 1012.9        
May 26 12:35 N 5 16.09 Mostly Cloudy SCT019 SCT028 BKN041 27 21     72%   29 1012.9        
May 26 12:15 NW 8 16.09 Light Rain SCT021 BKN032 BKN045 26 21     74%   28 1013.2        
May 26 11:55 Calm 16.09 Mostly Cloudy BKN021 BKN034 BKN040 27 20     68%   28 1013.2        
May 26 11:35 NW 5 16.09 Mostly Cloudy SCT021 BKN026 BKN031 27 21     71%   28 1013.6        
May 26 11:15 WNW 5 16.09 Mostly Cloudy SCT015 SCT024 BKN033 26 21     73%   27 1013.9        
May 26 10:55 W 8 16.09 Partly Cloudy SCT015 SCT031 26 21     75%   26 1013.9        
May 26 10:35 NNW 5 16.09 Mostly Cloudy SCT013 BKN021 BKN031 25 21     76%   26 1013.9        
May 26 10:15 Calm 16.09 Cloudy SCT013 OVC021 25 21     77%   26 1014.2        
May 26 09:55 Calm 16.09 Cloudy SCT008 SCT021 OVC110 25 21     80%   25 1014.2        
May 26 09:35 Calm 16.09 Cloudy SCT006 OVC110 24 21     84%   25 1014.2        
May 26 09:15 Calm 16.09 Cloudy SCT006 BKN021 OVC110 23 21     86%   24 1014.2        
May 26 08:55 Calm 16.09 Mostly Cloudy BKN006 BKN021 BKN110 23 21     86%   24 1014.6        
May 26 08:35 Calm 16.09 Mostly Cloudy BKN006 23 21     91%   23 1014.2        
Notice The following observation data may not be complete
May 26 08:15 S 5 16.09 Partly Cloudy SCT006          %     1013.9        
Notice The following observation data may not be complete
May 26 07:55 Calm 16.09 Partly Cloudy SCT004          %     1013.9        
Notice The following observation data may not be complete
May 26 07:35 Calm 16.09 Mostly Cloudy BKN002          %     1013.9        
Notice The following observation data may not be complete
May 26 07:15 Calm 16.09 Mostly Cloudy BKN002          %     1013.9        
Notice The following observation data may not be complete
May 26 06:55 Calm 16.09 Clear            %     1013.6        
Notice The following observation data may not be complete
May 26 06:35 Calm 6.44 Haze CLR          %     1013.6        
Notice The following observation data may not be complete
May 26 06:15 Calm 16.09 Clear CLR          %     1013.2        
Notice The following observation data may not be complete
May 26 05:55 Calm 16.09 Clear CLR          %     1012.9        
Notice The following observation data may not be complete
May 26 05:35 Calm 16.09 Partly Cloudy SCT001          %     1012.5        
Notice The following observation data may not be complete
May 26 05:15 Calm 16.09 Partly Cloudy SCT001          %     1012.5        
Notice The following observation data may not be complete
May 26 04:55 Calm 11.27 Partly Cloudy SCT001          %     1012.5        
Notice The following observation data may not be complete
May 26 04:35 Calm 4.83 Fog/Mist OVC001          %     1012.5        
Notice The following observation data may not be complete
May 26 04:15 ESE 8 0.8 Fog OVC001          %     1012.2        
Notice The following observation data may not be complete
May 26 03:55 NW 8 1.61 Fog/Mist OVC001          %     1012.5        
Notice The following observation data may not be complete
May 26 03:35 ESE 5 0.8 Fog OVC001          %     1012.2        
Notice The following observation data may not be complete
May 26 03:15 Calm 0.8 Fog OVC003          %     1012.5        
Notice The following observation data may not be complete
May 26 02:55 Calm 4.02 Fog/Mist SCT003          %     1012.5        
Notice The following observation data may not be complete
May 26 02:35 Calm 11.27 Mostly Cloudy BKN003          %     1012.5        
Notice The following observation data may not be complete
May 26 02:15 Calm 11.27 Cloudy OVC003          %     1012.5        
Notice The following observation data may not be complete
May 26 01:55 ESE 5 8.05 Haze OVC003          %     1012.5        
Notice The following observation data may not be complete
May 26 01:35 SSE 8 11.27 Cloudy OVC003          %     1012.9        
May 26 01:15 S 5 16.09 Cloudy OVC003 21 21     100%     1013.2        
May 26 00:55 Calm 11.27 Cloudy OVC001 21 21     100%     1013.2        
May 26 00:35 Calm 16.09 Cloudy SCT001 OVC110 21 21     100%     1013.2        
May 26 00:15 Calm 16.09 Cloudy SCT100 OVC120 21 21     100%     1013.6        
May 25 23:55 Calm 16.09 Mostly Cloudy BKN120 21 21     100%     1013.9        
May 25 23:35 Calm 16.09 Partly Cloudy SCT003 SCT120 21 20     97%     1013.9        
May 25 23:15 Calm 16.09 Partly Cloudy SCT003 21 20     94%     1013.9        
May 25 22:55 S 5 16.09 Partly Cloudy SCT003 21 20     95%   22 1013.9        
May 25 22:35 Calm 16.09 Light Rain SCT055 SCT075 SCT090 21 20     93%   22 1013.9        
May 25 22:15 Calm 16.09 Light Rain BKN075 OVC085 21 20     93%   22 1013.9        
May 25 21:55 NNE 8 11.27 Rain SCT046 SCT065 OVC090 21 20     92%   22 1013.2        
May 25 21:35 Calm 6.44 Rain SCT075 OVC095 21 20     92%   22 1013.9        
May 25 21:15 Calm 11.27 Rain SCT075 OVC095 21 20     91%   22 1014.2        
May 25 20:55 S 8 16.09 Rain SCT014 BKN080 OVC095 22 20     89%   23 1014.6        
May 25 20:35 WSW 11 16.09 Light Rain SCT010 BKN013 OVC080 22 21     91%   23 1014.6        
May 25 20:15 WSW 8 16.09 Light Rain BKN008 OVC050 22 21     91%   23 1014.9        
May 25 19:55 WSW 13 16.09 Mostly Cloudy SCT008 BKN050 BKN065 22 21     90%   23 1014.2        
May 25 19:35 SE 8 16.09 Partly Cloudy SCT120 22 21     91%   23 1013.6        
May 25 19:15 SE 13 16.09 Light Drizzle CLR 22 21     93%   23 1013.6        
May 25 18:35 Calm 11.27 Rain SCT050 BKN075 OVC085 23 21     92%   23 1013.2        
May 25 18:15 Calm 4.83 Rain SCT046 BKN055 OVC075 22 21     92%   23 1013.2        
May 25 17:55 SSW 8 16.09 Light Rain   22 21     93%   23 1013.6        
May 25 17:15 E 17 4.02 Heavy Rain SCT016 SCT026 OVC036 23 20     85%   24 1012.9        
May 25 16:55 E 17 16.09 Mostly Cloudy SCT029 SCT033 BKN041 26 20     66%   28 1012.5        
May 25 16:35 Calm 16.09 Clear CLR 31 19     50%   32 1012.2        
May 25 16:15 E 5 16.09 Clear CLR 30 19     51%   32 1012.9        
May 25 15:55 SSW 8 16.09 Clear CLR 31 19     50%   32 1012.9        
May 25 15:35 Calm 16.09 Partly Cloudy SCT038 30 19     51%   32 1012.9        
May 25 15:15 ESE 9 16.09 Mostly Cloudy SCT033 SCT046 BKN055 30 20     54%   32 1013.2        
May 25 14:55 Calm 16.09 Mostly Cloudy SCT031 SCT046 BKN055 30 20     56%   31 1013.2        
May 25 14:35 SSE 5 16.09 Partly Cloudy SCT031 SCT040 SCT050 30 20     54%   32 1013.6        
May 25 14:15 ESE 8 16.09 Mostly Cloudy BKN031 30 21     59%   32 1013.9        
May 25 13:55 Calm 16.09 Partly Cloudy SCT031 29 21     60%   32 1014.2        
May 25 13:35 NNE 5 16.09 Clear CLR 29 20     58%   31 1014.9        
May 25 12:15 Calm 16.09 Clear CLR 26 20     69%   28 1016.3        
May 25 11:55 Calm 16.09 Clear CLR 25 20     72%   26 1016.6        
May 25 11:35 Calm 16.09 Clear CLR 25 20     73%   26 1016.6        
May 25 11:15 Calm 16.09 Clear CLR 25 20     73%   26 1016.6        
May 25 10:55 Calm 16.09 Clear CLR 25 20     74%   25 1016.9        
May 25 10:35 ESE 5 16.09 Clear CLR 24 20     77%   25 1016.9        
May 25 10:15 Calm 16.09 Clear CLR 24 20     79%   24 1017.3        
May 25 09:55 Calm 16.09 Clear CLR 24 20     81%   24 1017.3        
May 25 09:35 SE 5 16.09 Clear CLR 23 20     82%   24 1017.3        
May 25 09:15 SE 5 16.09 Clear CLR 23 20     85%   23 1017.3        
May 25 08:55 Calm 16.09 Clear CLR 22 20     87%   23 1017.3        
May 25 08:35 Calm 16.09 Clear CLR 22 20     89%   22 1017.3        
May 25 08:15 Calm 16.09 Clear CLR 21 20     90%   22 1017.3        
May 25 07:55 Calm 16.09 Clear CLR 21 20     92%   22 1017.3        
May 25 07:35 Calm 16.09 Clear CLR 21 20     95%     1016.9        
May 25 07:15 Calm 16.09 Clear CLR 20 20     100%     1016.9        
May 25 06:55 Calm 16.09 Clear CLR 20 20     100%     1016.9        
May 25 06:35 Calm 16.09 Clear CLR 20 20     100%     1016.6        
May 25 06:15 Calm 16.09 Clear CLR 19 19     99%     1016.6        
May 25 05:55 Calm 16.09 Clear CLR 20 20     100%     1016.3        
May 25 05:35 Calm 16.09 Clear CLR 19 19     98%     1015.9        
May 25 05:15 Calm 16.09 Clear CLR 19 19     97%     1015.9        
May 25 04:55 Calm 16.09 Clear CLR 19 19     96%     1015.9        
May 25 04:35 Calm 16.09 Clear CLR 19 19     95%     1015.9        
May 25 04:15 Calm 11.27 Clear CLR 19 18     94%     1015.9        
May 25 03:55 Calm 16.09 Clear CLR 20 19     94%     1015.9        
May 25 03:35 Calm 16.09 Clear CLR 20 19     94%     1015.6        
May 25 03:15 Calm 16.09 Clear CLR 20 19     94%     1015.9        
May 25 02:55 Calm 16.09 Clear CLR 20 19     94%     1016.3        
May 25 02:35 Calm 16.09 Clear CLR 20 19     93%     1016.3        
May 25 02:15 Calm 16.09 Clear CLR 20 19     93%     1016.6        
May 25 01:55 Calm 16.09 Clear CLR 20 19     92%     1016.6        
May 25 01:35 Calm 16.09 Clear CLR 20 19     93%     1016.6        
May 25 01:15 Calm 16.09 Clear CLR 21 20     94%     1016.6        
May 25 00:55 Calm 16.09 Clear CLR 21 19     93%     1017.3        
May 25 00:35 Calm 16.09 Clear CLR 21 19     92%     1017.3        
May 25 00:15 Calm 16.09 Clear CLR 21 19     92%     1017.6        
May 24 23:55 Calm 16.09 Clear CLR 21 19     92%     1018        
May 15 06:15 Calm 11.27 Clear   18 17     94%     1013.9        
May 14 20:15 Calm 16.09 Clear   24 20     76%   25 1012.9        
May 14 06:35 Calm 6.44 Fog/Mist CLR 17 17     100%     1016.6        
May 14 05:35 Calm 11.27 Clear   17 17     99%     1016.6        
May 14 00:35 Calm 11.27 Clear CLR 19 18     92%     1017.3        
May 13 20:35 Calm 16.09 Clear CLR 23 20     84%   23 1016.6        
May 13 20:15 Calm 16.09 Clear CLR 24 20     81%   24 1016.3        
May 13 18:55 Calm 16.09 Clear CLR 29 21     59%   32 1016.3        
May 13 17:15 NNE 5 16.09 Clear CLR 33 15     34%   32 1016.6        
May 13 16:35 ENE 5 16.09 Clear CLR 33 14     33%   32 1016.6        
May 13 13:35 N 5 16.09 Partly Cloudy SCT060 32 15     36%   32 1019        
May 13 12:15 N 8 16.09 Clear   31 15     39%   31 1020        
May 13 10:35 NNW 9 16.09 Clear CLR 29 17     48%   29 1020.7        
May 13 09:55 NW 8 16.09 Clear CLR 27 18     56%   28 1020.7        
May 13 08:15 Calm 16.09 Clear CLR 22 18     76%   23 1020.3        
May 13 06:35 Calm 8.05 Fog/Mist CLR 16 15     97%     1019.3        
May 13 02:15 Calm 16.09 Clear CLR 17 16     93%     1017.6        
May 12 21:35 Calm 16.09 Clear CLR 21 18     85%     1018.6        
Notice The following observation data may not be complete
May 12 20:15 Calm 16.09 Clear CLR   19      %     1018        
Notice The following observation data may not be complete
May 12 19:55 Calm 16.09 Clear CLR   19      %     1017.6        
May 12 16:55 SSW 8 16.09 Clear CLR 32 11     28%   31 1018        
May 12 15:35 Calm 16.09 Clear CLR 32        %     1018.6        
May 12 06:35 Calm 16.09 Clear CLR 13 12     94%     1020.7        
May 12 02:55 Calm 16.09 Clear CLR 14 13     90%     1018.3        
Notice The following observation data may not be complete
May 12 01:15 Calm 16.09 Clear CLR   13      %     1018.3        
May 11 20:55 Calm 16.09 Clear CLR 21 18     83%     1018        
Jun 11 23:15 SE 8 16.09 Clear   24 24     100%   25 1019.3        
Notice The following observation data may not be complete
Jun 11 20:35   16.09 Clear            %              
Jun 11 20:15 N 5 16.09 Clear   23 23     100%   25 1018        
Notice The following observation data may not be complete
Jun 11 19:35   16.09 Clear            %              
Jun 11 13:55 S 5 16.09 Clear   32 18     44%   33 1019        
Notice The following observation data may not be complete
Jun 11 05:15   16.09 Clear            %              
Jun 11 02:15 Calm 16.09 Clear   19 19     99%     1017.3        
Jun 11 00:35 Calm 16.09 Clear   20 19     96%     1017.6        
Jun 10 22:15 Calm 16.09 Clear   21 19     87%   22 1017.6        
Notice The following observation data may not be complete
Jun 10 20:35 Calm 16.09 Clear     19      %     1016.3        
Jun 10 17:55 SE 9 16.09 Clear   31 16     40%   31 1015.6        
Notice The following observation data may not be complete
Jun 10 15:15   16.09 Clear            %              
Jun 10 12:35 SSE 13 16.09 Clear   29 16     44%   29 1018        
Notice The following observation data may not be complete
Jun 10 11:15   16.09 Clear            %              
Jun 10 07:35 Calm 16.09 Clear   20 18     93%     1016.9        
Notice The following observation data may not be complete
Jun 10 03:55 Calm 16.09 Clear            %     1015.2        
Jun 09 22:35 Calm 16.09 Clear   18 18     98%     1014.9        
Jun 08 06:55 Calm 16.09 Clear   16 15     93%     1012.9        
Notice The following observation data may not be complete
Jun 08 06:35   16.09 Clear            %              
Notice The following observation data may not be complete
Jun 07 18:35   16.09 Clear            %              
Jun 07 14:55 N 17 16.09 Clear   28 15     43%   28 1009.2        
Notice The following observation data may not be complete
Jun 07 10:15   16.09 Clear            %              
Jun 06 14:35 NE 17 16.09 Clear   24 20     77%   25 1007.1        
Jun 06 13:35 NW 9 16.09 Clear   27 21     70%   30 1006.8        
Jun 06 10:15 NNW 8 16.09 Clear   25 23     88%   26 1008.1        
Jun 06 09:55 N 5 16.09 Clear   24 23     92%   25 1008.1        
Jun 05 16:35 WSW 5 16.09 Clear   26 21     78%   26 1007.5